Weather in Kupino

Russia / Novosibirsk Oblast     54°21′57″N   77°17′50″E
temp.,
°C
wind,
m/s
gust,
m/s
humid.,
%
clouds,
%
prec.,
mm/h
press.,
hPa
HPBL,
m
3 march, wed
wed301:00−17sw339786 0.1 101759
04:00−18ssw339778 0.1 101629
07:00−19ssw349879 0.1 101750
10:00−17ssw359790 0.0 1017102
13:00−13ssw589494 0.1 1017348
16:00−13ssw61091100 0.0 1017405
19:00−14ssw6139297 0.0 1018445
22:00−12ssw71492100 0.1 1017480
4 march, thu
thu401:00−10ssw71393100 0.3 1016487
04:00−9ssw81494100 0.4 1015483
07:00−7ssw81492100 0.8 1014474
10:00−5ssw91593100 0.3 1013629
13:00−3ssw91494100 0.7 1013682
16:00−2ssw91593100 0.4 1011797
19:00−2ssw91685100 0.6 1010779
22:00−2ssw91788100 0.0 1009792
5 march, fri
fri501:00−2ssw91591100 0.1 1008854
04:00−3ssw81595100 0.3 1006672
07:00−2sw81496100 1.7 1006816
10:00−9wsw8149051 0.2 1010398
13:00−8sw8138854 0.2 1014484
16:00−7sw101593100 0.1 1014881
19:00−5sw91492100 0.7 10151034
22:00−5sw81491100 0.3 1016756
6 march, sat
sat601:00−5sw71493100 0.4 1016602
04:00−3sw81595100 0.3 1015820
07:00−5sw91688100 0.7 1014737
10:00−6ssw101786100 0.0 1013719
13:00−4sw111689100 0.1 1011918
16:00−3sw111788100 0.2 1010998
19:00−1sw111887100 0.3 10091108
22:00−3wsw81683100 0.1 1011665
7 march, sun
sun701:00−6wsw61390100 0.1 1014406
04:00−9wsw4992100 0.0 1015184
07:00−10sw3493100 0.0 101647
10:00−7s5891100 0.0 1015262
13:00−3s81393100 0.3 1012590
16:00−3ssw9149299 0.0 1010644
19:000sw9158999 0.1 1009912
22:00−1sw91688100 0.0 1009677